Flag for Brazil Weather past 2 weeks in Brasilia, Distrito Federal, Brazil

Now
72 °F

Sunny.


Feels Like: 76 °F
Forecast: 61 / 85 °F
Wind: 9 mph from East

Location: Brasilia Aeroporto

Current Time: Aug 28, 2015 at 9:54:07 AM

Latest Report: Aug 28, 2015 at 9:00 AM


Visibility: 10 mi

Pressure: 30.21 "Hg (26.63 "Hg at 1091m altitude)

Humidity: 57%

Dew point: 55 °F

Location of BrasiliaLocation

Historic Weather in Brasilia — Graph

°F

Brasilia temperature yesterday

Maximum temperature yesterday: 90 °F (at 2:00 PM)
Minimum temperature yesterday: 55 °F (at 6:00 AM)
Average temperature yesterday: 74 °F

Past Weeks' High & Low Weather Summary

 TemperatureHumidityPressure
High90 °F (Aug 27, 2:00 PM)94% (Aug 19, 5:00 AM)30.33 "Hg (Aug 19, 5:00 AM)
Low50 °F (Aug 15, 5:00 AM)20% (Aug 26, 4:00 PM)29.98 "Hg (Aug 24, 4:00 PM)
Average69 °F53%30.14 "Hg
* Reported Aug 13 9:00 AM — Aug 28 9:00 AM, Brasilia, Weather by CustomWeather, © 2015

Note: Actual official high and low records may vary slightly from our data, if they occured in-between our weather recording intervals... More about our weather records

Advertising

Brasilia weather history for previous 24 hours

 ConditionsComfort  
Time TempWeatherWind HumidityBarometerVisibility
9:00 AM
Fri, Aug 28
72 °FSunny.9 mph57%30.21 "Hg10 mi
8:00 AM64 °FSunny.No wind78%30.21 "Hg10 mi
7:00 AM61 °FSunny.No wind88%30.18 "Hg10 mi
6:00 AM57 °FClear.3 mph94%30.15 "Hg10 mi
5:00 AM57 °FClear.No wind94%30.15 "Hg10 mi
4:00 AM61 °FClear.No wind88%30.15 "Hg10 mi
3:00 AM63 °FClear.3 mph83%30.15 "Hg10 mi
2:00 AM64 °FClear.9 mph78%30.15 "Hg10 mi
1:00 AM66 °FClear.13 mph68%30.09 "Hg10 mi
12:00 AM70 °FClear.13 mph60%30.18 "Hg10 mi
11:00 PM
Thu, Aug 27
73 °FClear.9 mph53%30.18 "Hg10 mi
10:00 PM72 °FClear.6 mph61%30.18 "Hg10 mi
9:00 PM73 °FClear.7 mph61%30.15 "Hg10 mi
8:00 PM75 °FClear.7 mph57%30.12 "Hg10 mi
7:00 PM77 °FClear.8 mph54%30.09 "Hg10 mi
6:00 PM81 °FSunny.8 mph42%30.07 "Hg10 mi
5:00 PM82 °FSunny.7 mph30%30.07 "Hg10 mi
4:00 PM86 °FSunny.7 mph25%30.04 "Hg10 mi
3:00 PM90 °FSunny.9 mph20%30.07 "Hg10 mi
2:00 PM90 °FSunny.9 mph21%30.09 "Hg10 mi
1:00 PM88 °FScattered clouds.8 mph22%30.12 "HgN/A
12:00 PM86 °FScattered clouds.8 mph24%30.15 "HgN/A
11:00 AM86 °FScattered clouds.7 mph24%30.15 "HgN/A
10:00 AM84 °FSunny.7 mph29%30.18 "Hg10 mi
9:00 AM79 °FSunny.2 mph34%30.15 "Hg10 mi
Weather by CustomWeather, © 2015

See weather overviewHow to use our weather pages